Theta_e
305 305 305 304 303 304 305 305 305 305 304 304 304 302 302 304 303 302 301 300 302 303 304 308 310 311 323 326 326 324 322 319 319 312 310 308 307 306 305 304 303 302 301 300
305 305 305 306 305 306 306 305 304 304 305 304 304 306 305 305 305 304 304 303 301 300 300 301 304 309 324 323 323 321 321 319 314 311 308 307 306 305 304 303 302 301 300 299
303 304 305 305 305 305 305 304 304 304 304 304 304 303 304 304 304 303 302 302 302 301 300 299 299 299 312 322 318 318 316 315 311 309 308 307 305 304 303 302 302 301 300 299
303 304 304 305 305 305 305 304 304 304 303 304 302 303 303 304 304 304 303 302 301 301 301 300 299 298 299 303 318 318 316 313 310 308 307 306 304 302 302 302 301 300 299 298
301 304 304 304 305 305 306 304 304 303 302 302 303 300 303 304 305 304 303 302 301 301 300 300 299 298 298 300 308 315 314 311 309 309 307 306 303 303 302 302 300 299 298 298
301 301 301 301 302 302 303 303 303 303 302 295 302 302 304 304 305 304 302 302 301 300 300 299 300 300 298 299 302 315 312 310 309 308 306 305 303 302 301 301 300 299 298 297
300 301 300 301 301 301 303 302 292 298 297 300 302 303 303 304 304 302 300 299 299 299 299 299 299 299 299 299 299 303 310 309 308 307 306 305 303 302 302 301 300 298 297 296
300 299 301 301 301 302 303 301 296 303 301 306 305 306 306 304 301 298 298 298 298 296 298 299 299 299 299 299 299 299 301 308 307 306 306 305 304 303 302 301 300 299 298 297
299 302 300 300 300 301 303 302 303 296 292 297 304 304 305 303 298 296 295 297 297 295 296 297 298 298 298 298 298 299 299 303 307 306 306 305 304 303 302 302 301 300 299 297
299 298 299 300 299 300 301 301 301 296 298 297 302 305 304 301 296 293 292 294 296 295 295 295 296 296 297 296 296 297 299 300 305 306 305 305 304 303 303 302 301 300 299 297
294 297 298 298 300 300 297 296 297 300 301 299 298 302 299 295 293 291 290 294 295 294 294 294 295 295 294 294 294 295 296 298 300 304 304 304 304 303 303 302 301 300 298 297
291 293 292 296 294 295 297 299 298 300 296 295 297 299 296 293 291 290 291 295 293 292 292 293 294 293 292 293 293 293 294 295 298 301 303 303 303 303 302 302 301 299 298 297
290 286 284 287 291 291 291 293 297 293 294 293 293 299 295 292 289 289 291 293 292 292 292 292 291 290 291 292 292 292 293 293 294 298 301 302 302 301 301 301 300 299 298 297
290 288 284 286 291 289 289 289 288 285 281 282 290 287 290 290 289 289 290 291 291 290 291 291 290 289 289 290 291 291 291 292 293 294 298 300 300 300 301 301 300 298 297 296
289 284 285 286 288 289 289 288 288 287 281 284 288 284 287 285 286 286 288 289 290 289 290 289 288 288 288 289 289 290 291 291 292 292 294 298 299 299 299 299 298 297 296 295
287 284 287 282 287 288 288 288 288 288 287 286 287 287 288 288 287 287 287 287 289 286 284 286 286 287 287 288 289 289 290 290 291 291 291 295 297 297 297 297 296 296 294 294
284 283 279 286 287 286 283 286 287 287 283 284 285 287 286 284 286 283 285 287 286 285 283 284 283 286 288 288 289 289 289 290 291 290 290 291 295 296 295 295 294 294 293 293
287 287 286 286 282 286 287 285 287 287 288 287 287 286 287 282 284 286 285 285 286 284 283 282 285 288 289 289 289 289 289 290 289 289 289 290 292 294 294 293 292 292 292 292
288 288 289 288 287 286 286 285 284 284 285 285 285 286 286 286 286 286 287 284 284 283 284 285 288 289 289 289 289 288 288 288 287 287 288 290 291 292 292 291 291 291 291 290
288 289 290 289 288 287 286 286 286 286 286 287 287 287 286 286 285 286 281 280 280 283 285 287 288 289 289 288 288 287 287 286 286 286 287 289 290 291 291 291 291 290 290 290
282 287 288 288 289 289 288 287 286 286 286 286 285 285 285 285 285 282 278 280 284 286 287 288 288 288 288 289 287 286 286 285 285 285 287 289 290 290 291 291 291 289 289 289
286 286 287 287 288 288 287 286 287 287 287 287 286 285 286 286 285 284 283 281 281 282 286 287 287 288 287 288 286 285 285 284 283 282 283 288 290 291 290 290 289 289 289 288
284 284 287 288 288 287 285 286 286 283 286 286 286 286 285 286 285 285 284 284 284 285 286 287 287 287 288 287 285 284 284 283 280 280 282 287 290 290 290 289 288 288 288 288
284 283 288 288 289 290 289 289 287 285 286 286 286 286 286 286 287 286 285 285 285 286 286 287 287 286 286 285 284 282 282 280 279 278 281 287 290 290 289 289 288 288 288 288
286 285 284 286 287 288 288 287 286 286 286 286 286 286 287 287 288 287 286 286 286 286 286 286 286 285 284 283 282 280 279 279 278 278 281 286 289 289 288 289 288 288 289 289
286 287 286 286 286 286 287 286 285 286 286 286 286 285 286 287 287 285 285 285 285 284 285 285 285 284 282 281 279 278 277 277 277 276 281 286 289 289 288 288 288 288 289 289
Wind_Speed
3 3 5 8 8 5 5 6 8 6 9 7 7 6 10 13 8 10 12 7 8 9 10 18 16 11 27 34 35 34 34 33 36 36 35 33 32 29 25 23 22 21 19 17
2 5 10 6 3 5 2 4 7 8 6 8 9 16 17 18 14 16 14 6 7 7 9 10 16 7 25 34 37 36 38 39 39 38 32 27 29 30 29 25 22 21 20 17
6 7 4 3 2 4 3 4 5 8 5 5 6 8 5 4 7 16 17 13 13 11 12 13 17 23 8 28 33 37 38 41 40 37 34 26 27 22 23 26 25 23 20 19
5 3 4 2 2 4 4 2 2 4 6 2 6 5 5 6 9 15 15 15 15 18 17 17 17 21 23 16 26 39 40 39 38 40 38 38 34 26 25 34 29 25 22 19
6 5 3 3 4 4 5 1 2 3 4 4 4 3 7 4 6 8 10 11 12 13 13 15 16 21 26 28 12 29 36 36 36 43 40 40 31 28 27 33 29 25 22 20
7 1 4 6 1 2 2 3 4 0 2 3 7 6 5 1 10 8 10 13 11 11 12 11 22 26 28 32 25 18 31 33 36 40 39 39 32 32 29 35 32 28 24 22
5 4 1 3 1 1 2 5 3 5 2 5 6 3 7 10 10 15 13 15 14 15 16 15 15 24 29 32 31 21 13 27 32 35 37 38 36 35 35 37 37 33 29 26
1 5 2 3 2 4 4 6 5 5 2 4 7 4 2 15 15 15 14 11 12 17 15 17 16 23 26 31 35 29 20 11 27 34 36 38 37 36 34 34 36 35 33 29
2 4 4 1 1 4 2 3 5 4 1 3 4 3 8 12 13 14 15 13 14 15 15 14 19 23 26 28 31 32 25 17 16 31 35 35 35 35 36 34 33 34 31 27
2 3 4 3 1 2 3 1 2 2 1 3 4 5 5 8 10 12 17 11 11 12 14 12 15 20 24 26 29 31 28 21 12 23 31 33 34 35 36 35 33 32 29 28
2 3 5 3 2 3 4 3 2 1 3 5 2 3 6 11 9 11 11 7 10 10 10 11 13 18 21 24 27 30 29 25 19 12 24 29 32 34 35 35 33 31 31 30
3 2 4 6 7 2 3 2 3 2 4 2 2 5 10 11 10 15 11 6 6 6 6 8 12 17 20 22 24 27 30 27 21 16 19 24 29 32 35 35 34 33 33 31
2 2 3 8 5 5 5 3 3 1 3 5 3 5 9 5 8 12 8 4 6 9 7 6 11 15 18 21 23 24 27 30 24 18 17 23 26 30 34 35 35 35 34 33
2 2 6 5 3 2 4 6 7 5 2 2 9 9 19 21 22 17 1 4 4 4 6 7 9 14 18 20 22 24 27 30 27 21 17 21 26 30 34 35 36 36 36 34
4 4 4 6 6 6 13 14 10 9 6 7 19 9 17 8 13 13 11 7 7 7 3 5 10 13 18 20 24 25 24 27 29 26 20 22 27 30 33 34 35 36 35 35
2 5 3 5 7 10 15 17 16 15 11 11 17 25 7 10 7 11 10 10 7 7 4 6 7 14 17 20 24 27 26 26 27 29 26 22 27 30 32 33 34 35 35 35
4 4 2 8 6 5 11 17 21 15 7 10 13 20 3 7 10 7 11 10 8 8 7 6 7 12 20 23 26 26 30 29 26 25 28 22 26 31 33 34 35 37 38 37
7 9 5 7 2 13 10 7 12 18 18 14 14 14 9 11 10 13 9 8 8 9 8 7 11 17 24 29 31 29 28 28 27 25 24 21 26 32 34 35 37 38 38 40
14 9 9 9 11 14 14 5 7 8 14 12 12 18 13 13 4 5 7 8 11 8 10 16 19 21 24 28 28 27 29 27 26 26 24 22 25 29 33 34 36 37 38 37
8 13 13 11 11 18 16 16 21 17 17 18 24 19 18 10 7 8 6 5 7 14 17 21 19 19 23 29 24 26 28 27 26 26 26 24 25 29 32 35 36 36 39 38
1 5 15 16 19 14 14 21 4 8 13 14 9 12 8 8 9 7 4 5 9 14 20 21 17 17 24 25 22 24 26 25 27 28 28 27 25 29 31 33 35 33 33 32
6 7 9 7 14 20 16 7 12 18 10 8 9 9 9 9 7 7 8 6 7 10 17 18 18 19 26 23 21 23 24 26 26 29 28 25 25 28 28 29 29 33 32 30
6 7 9 8 8 6 3 8 9 5 10 8 6 11 9 10 8 9 8 7 7 12 17 22 18 20 25 24 21 22 27 27 26 26 26 24 24 27 28 29 29 29 31 27
5 4 5 5 8 19 19 17 10 6 7 8 10 10 9 11 12 11 7 7 6 11 15 22 18 17 22 22 25 25 28 28 28 26 26 23 22 24 27 28 28 29 29 27
6 0 6 7 14 12 14 14 9 8 8 9 9 9 13 13 15 10 8 8 7 13 18 20 18 17 22 24 28 29 27 25 26 25 25 21 20 23 23 27 27 29 32 38
10 16 9 12 17 13 14 10 6 7 8 9 8 8 12 12 14 6 8 9 12 14 19 18 19 20 25 25 30 30 24 22 23 22 20 17 17 19 20 22 20 26 29 33
Wind_Direction
227 81 214 225 215 232 311 307 294 288 290 311 281 262 274 284 272 265 268 256 270 263 252 265 279 271 203 186 189 189 186 191 190 186 181 183 184 187 190 194 192 191 190 193
40 243 236 232 254 199 279 314 291 298 294 331 292 292 280 274 272 264 256 292 314 329 332 326 317 261 191 184 187 183 189 190 192 189 185 182 187 188 192 192 195 193 192 193
185 223 115 221 251 314 271 229 254 258 317 295 313 302 323 302 353 58 52 65 47 36 17 6 360 5 262 186 185 185 188 190 189 189 186 186 190 188 183 192 195 194 195 194
229 223 198 205 249 210 282 255 1 331 9 266 69 289 311 300 61 62 60 56 49 37 28 17 5 355 351 340 204 194 193 192 190 194 186 191 184 181 197 194 196 194 195 195
247 168 167 202 218 206 206 36 302 279 287 357 300 96 276 110 65 68 61 52 48 44 32 19 7 358 358 2 256 199 193 191 191 196 194 194 190 191 197 196 192 194 193 196
241 208 189 203 293 321 52 11 322 258 116 357 243 159 283 36 133 104 70 44 34 28 22 19 18 15 8 9 13 211 192 191 195 198 196 199 197 193 191 192 191 192 194 193
309 232 109 105 267 346 105 61 348 359 9 225 294 116 234 114 103 84 72 51 38 26 20 10 12 12 8 5 3 8 212 191 197 197 199 205 206 205 202 194 193 190 192 194
148 325 153 175 155 157 185 152 155 224 225 276 323 256 37 111 92 76 63 48 45 28 22 15 5 6 1 2 2 354 355 246 203 201 205 209 212 211 209 205 202 199 199 198
35 263 338 220 83 119 277 155 177 123 79 66 224 278 93 92 72 58 50 36 38 24 16 10 6 3 3 360 356 357 346 338 239 212 210 210 212 215 214 213 209 205 203 196
25 306 293 5 176 299 162 275 81 355 182 243 263 231 169 95 61 36 28 29 32 15 6 360 360 359 1 358 358 3 358 346 317 227 217 215 214 216 216 215 209 208 201 194
47 145 291 358 72 40 1 9 20 192 173 192 214 221 106 99 70 37 21 40 24 360 352 347 348 353 348 352 355 358 360 351 339 260 219 216 216 216 215 213 211 208 200 194
347 205 252 249 278 33 67 80 84 171 273 282 211 252 150 99 48 20 17 49 2 338 335 337 342 341 341 345 345 348 355 349 337 318 240 220 217 215 213 212 210 206 201 195
327 299 350 333 21 13 51 59 116 167 164 229 158 245 180 353 3 360 345 10 340 350 336 342 342 339 336 337 338 338 341 349 339 320 278 239 222 213 212 212 209 205 201 197
43 251 182 205 140 118 276 283 289 150 154 225 241 297 299 317 328 337 223 222 251 303 329 332 339 332 331 333 333 330 330 344 343 328 291 254 228 218 217 214 210 205 202 197
161 216 210 250 265 279 273 268 252 223 202 206 269 264 271 278 289 301 304 309 325 323 307 323 329 327 328 329 331 328 325 329 337 329 306 265 240 226 218 214 209 205 203 200
190 248 241 279 241 250 261 256 253 251 231 240 259 265 267 256 277 290 281 298 304 302 256 283 303 319 322 321 323 320 323 320 320 318 309 278 245 228 222 216 210 206 203 200
197 167 94 256 227 271 279 238 238 241 216 204 242 254 288 268 270 252 266 262 265 278 252 267 263 284 308 312 319 317 321 316 309 300 304 287 251 230 224 219 212 207 204 200
217 211 204 253 51 249 258 187 215 226 234 229 253 261 243 224 236 266 240 226 252 264 253 267 282 303 313 317 320 322 317 312 306 297 287 279 248 231 225 220 214 209 206 205
214 218 245 243 231 264 284 280 226 203 252 233 238 249 255 266 280 270 235 212 226 227 248 269 295 300 308 310 318 318 312 310 303 296 287 278 247 225 218 214 211 211 207 206
222 228 239 241 246 252 261 255 242 252 260 256 247 265 262 262 252 257 246 224 253 264 268 283 295 299 304 312 319 318 311 309 304 303 297 285 257 228 215 216 212 209 209 208
148 233 236 243 256 253 250 260 128 220 247 250 226 237 252 252 240 224 216 262 247 267 287 296 286 285 304 310 317 309 308 304 304 306 302 289 259 234 221 218 212 203 200 204
245 261 260 256 259 266 227 271 208 244 259 247 249 231 237 249 243 236 238 241 256 262 289 279 278 292 305 304 311 300 298 304 306 307 303 289 254 232 219 210 202 202 195 196
244 202 252 246 250 273 253 220 240 205 234 249 228 252 236 249 234 235 248 242 245 261 276 287 278 291 296 300 305 297 296 303 308 305 297 290 251 229 214 203 195 188 189 190
263 206 235 317 271 249 272 288 273 235 215 228 244 247 235 241 251 238 236 240 243 256 262 280 276 273 285 297 303 297 299 306 309 301 298 289 240 219 208 203 198 194 187 187
227 51 242 261 280 277 251 247 258 275 260 249 253 233 243 249 253 245 239 247 243 252 264 271 268 272 284 297 303 305 302 306 308 303 297 286 238 214 203 203 201 199 200 196
241 254 257 266 278 279 281 300 336 289 289 286 271 271 255 245 252 211 237 244 245 255 276 269 272 279 291 300 302 304 302 303 306 299 294 286 232 210 201 196 200 209 211 205